Regional Weather Roundup
Issued by NWS

Home | Current Version | Previous Version | Graphics & Text | Print | Product List | Glossary On
Versions: 1 2 3 4 5 6 7 8 9 10 11 12 13 14 15 16 17 18 19 20 21 22 23 24 25 26 27 28 29 30 31 32 33 34 35 36 37 38 39 40 41 42 43 44 45 46 47 48 49 50
000
ASUS44 KMEG 171800
RWRTN
TENNESSEE HOURLY STATE WEATHER ROUNDUP
NATIONAL WEATHER SERVICE MEMPHIS TN
100 PM CDT TUE OCT 17 2017

TNZ002-004-019-021-049-052-054-088>092-171900-
WEST TENNESSEE

CITY           SKY/WX    TMP DP  RH WIND       PRES   REMARKS
MEMPHIS INTL   MOSUNNY   68  43  40 N3        30.30F
NWS MEMPHIS      N/A     68 N/A N/A MISG        N/A
JACKSON        SUNNY     67  42  40 CALM      30.31F
DYERSBURG      SUNNY     67  43  41 VRB7      30.32F
$$

TNZ008-025-027-028-033-062-065-066-171900-
NORTH MIDDLE TENNESSEE

CITY           SKY/WX    TMP DP  RH WIND       PRES   REMARKS
NASHVILLE      MOSUNNY   66  39  37 E3        30.33F
CLARKSVILLE    SUNNY     64  40  41 CALM      30.32F
SMYRNA         SUNNY     65  42  43 VRB3      30.33F
CROSSVILLE     SUNNY     60  36  40 CALM      30.33F
$$

TNZ061-075-076-078-094-096-097-171900-
SOUTH MIDDLE TENNESSEE

CITY           SKY/WX    TMP DP  RH WIND       PRES   REMARKS
$$

TNZ017-018-042-046-047-171900-
NORTHEAST TENNESSEE

CITY           SKY/WX    TMP DP  RH WIND       PRES   REMARKS
TRI CITIES     SUNNY     62  35  36 VRB3      30.33F
$$

TNZ012-013-036-069-073-074-171900-
CENTRAL EAST TENNESSEE

CITY           SKY/WX    TMP DP  RH WIND       PRES   REMARKS
KNOXVILLE      SUNNY     63  43  48 E8        30.32F
OAK RIDGE      SUNNY     64  41  42 CALM      30.34F
$$

TNZ083-085-099-171900-
SOUTHEAST TENNESSEE

CITY           SKY/WX    TMP DP  RH WIND       PRES   REMARKS
CHATTANOOGA    SUNNY     66  39  37 NE3       30.32F
$$

SKY/WX REPORTED AS FAIR MEANS FEW OR NO CLOUDS BELOW
12 THOUSAND FEET.





USA.gov is the U.S. government's official web portal to all federal, state and local government web resources and services.